Year,Month,Day,Hour,Minute,Value (Times are PST for insolation in W/m^2)
2013,01,26,09,20,47.00
2013,01,26,09,21,47.00
2013,01,26,09,22,47.00
2013,01,26,09,23,47.00
2013,01,26,09,24,47.00
2013,01,26,09,25,47.00
2013,01,26,09,26,47.00
2013,01,26,09,27,47.00
2013,01,26,09,28,47.00
2013,01,26,09,29,47.00
2013,01,26,09,30,47.00
2013,01,26,09,31,47.00
2013,01,26,09,32,47.00
2013,01,26,09,33,47.00
2013,01,26,09,51,56.00
2013,01,26,09,52,56.00
2013,01,26,09,53,56.00
2013,01,26,09,54,56.00
2013,01,26,09,55,56.00
2013,01,26,09,56,56.00
2013,01,26,09,57,56.00
2013,01,26,09,58,56.00
2013,01,26,09,59,56.00
2013,01,26,10,00,56.00
2013,01,26,10,01,56.00
2013,01,26,10,17,56.00
2013,01,26,10,18,54.50
2013,01,26,10,19,49.40
2013,01,26,10,20,45.20
2013,01,26,10,21,43.00
2013,01,26,10,22,42.00
2013,01,26,10,23,42.00
2013,01,26,10,24,42.00
2013,01,26,10,25,42.00
2013,01,26,10,26,42.00
2013,01,26,10,27,42.00
2013,01,26,10,28,42.00
2013,01,26,10,29,42.00
2013,01,26,10,30,42.00
2013,01,26,10,31,42.00
2013,01,26,10,49,23.00
2013,01,26,10,50,23.00
2013,01,26,10,51,23.00
2013,01,26,10,52,23.00
2013,01,26,10,53,23.00
2013,01,26,10,54,23.00
2013,01,26,10,55,23.00
2013,01,26,10,56,23.00
2013,01,26,10,57,23.00
2013,01,26,10,58,23.00
2013,01,26,10,59,23.00
2013,01,26,11,00,23.00
2013,01,26,11,01,23.00
2013,01,26,11,02,23.00
2013,01,26,11,03,23.00
2013,01,26,11,37,25.00
2013,01,26,11,38,25.00
2013,01,26,11,39,25.00
2013,01,26,11,40,25.00
2013,01,26,11,41,25.00
2013,01,26,11,42,25.00
2013,01,26,11,43,25.50
2013,01,26,11,44,26.00
2013,01,26,11,45,26.00
2013,01,26,11,46,26.00
2013,01,26,11,47,26.00
2013,01,26,11,48,26.00
2013,01,26,11,49,26.00
2013,01,26,11,50,26.00
2013,01,26,11,51,26.00
2013,01,26,11,52,26.00
2013,01,26,11,53,26.00
2013,01,26,11,54,26.00
2013,01,26,12,10,44.00
2013,01,26,12,11,44.60
2013,01,26,12,12,46.40
2013,01,26,12,13,48.00
2013,01,26,12,14,49.00
2013,01,26,12,15,49.00
2013,01,26,12,16,50.50
2013,01,26,12,17,51.00
2013,01,26,12,18,51.00
2013,01,26,12,19,51.00
2013,01,26,12,20,51.00
2013,01,26,12,21,51.00
2013,01,26,12,22,51.00
2013,01,26,12,23,51.00
2013,01,26,12,24,51.00
2013,01,26,12,25,51.00
2013,01,26,12,26,51.00
2013,01,26,12,42,35.00
2013,01,26,12,43,39.20
2013,01,26,12,44,44.50
2013,01,26,12,45,51.00
2013,01,26,12,46,51.00
2013,01,26,12,47,51.00
2013,01,26,12,48,51.00
2013,01,26,12,49,51.00
2013,01,26,12,50,51.00
2013,01,26,12,51,51.00
2013,01,26,12,52,51.00
2013,01,26,12,53,51.00
2013,01,26,12,54,51.00
2013,01,26,12,55,51.00
2013,01,26,13,12,67.00
2013,01,26,13,13,68.80
2013,01,26,13,14,67.30
2013,01,26,13,15,68.60
2013,01,26,13,16,67.60
2013,01,26,13,17,69.00
2013,01,26,13,18,69.00
2013,01,26,13,19,69.00
2013,01,26,13,20,69.00
2013,01,26,13,21,69.00
2013,01,26,13,22,69.00
2013,01,26,13,23,69.00
2013,01,26,13,24,69.00
2013,01,26,13,25,69.00
2013,01,26,13,26,69.00
2013,01,26,14,17,88.00
2013,01,26,14,18,89.90
2013,01,26,14,19,92.30
2013,01,26,14,20,90.80
2013,01,26,14,21,90.00
2013,01,26,14,22,90.90
2013,01,26,14,23,95.30
2013,01,26,14,24,96.60
2013,01,26,14,25,91.00
2013,01,26,14,26,89.50
2013,01,26,14,27,83.00
2013,01,26,14,28,79.00
2013,01,26,14,29,70.90
2013,01,26,14,30,67.70
2013,01,26,14,31,69.00
2013,01,26,14,32,65.80
2013,01,26,14,33,65.00
2013,01,26,14,34,66.60
2013,01,26,14,35,63.00
2013,01,26,14,36,64.50
2013,01,26,14,37,70.60
2013,01,26,14,38,76.80
2013,01,26,14,39,83.50
2013,01,26,14,40,86.00
2013,01,26,14,41,89.40
2013,01,26,14,42,91.00
2013,01,26,14,43,90.20
2013,01,26,14,44,90.00
2013,01,26,14,45,71.80
2013,01,26,14,46,66.20
2013,01,26,14,47,61.00
2013,01,26,14,48,58.00
2013,01,26,14,49,59.60
2013,01,26,14,50,64.50
2013,01,26,14,51,70.00
2013,01,26,14,52,75.20
2013,01,26,14,53,81.50
2013,01,26,14,54,83.00
2013,01,26,14,55,77.60
2013,01,26,14,56,71.80
2013,01,26,14,57,68.40
2013,01,26,14,58,64.20
2013,01,26,14,59,59.90
2013,01,26,15,00,54.00
2013,01,26,15,01,50.00
2013,01,26,15,02,50.20
2013,01,26,15,03,55.50
2013,01,26,15,04,66.20
2013,01,26,15,05,75.70
2013,01,26,15,06,82.40
2013,01,26,15,07,84.40
2013,01,26,15,08,88.40
2013,01,26,15,09,90.30
2013,01,26,15,10,90.70
2013,01,26,15,11,87.60
2013,01,26,15,12,80.00
2013,01,26,15,13,69.90
2013,01,26,15,14,65.00
2013,01,26,15,15,50.80
2013,01,26,15,16,41.20
2013,01,26,15,17,40.00
2013,01,26,15,18,40.20
2013,01,26,15,19,42.00
2013,01,26,15,20,42.00
2013,01,26,15,21,42.60
2013,01,26,15,22,44.00
2013,01,26,15,23,44.00
2013,01,26,15,24,44.00
2013,01,26,15,25,42.70
2013,01,26,15,26,39.80
2013,01,26,15,27,39.00
2013,01,26,15,28,33.60
2013,01,26,15,29,32.00
2013,01,26,15,30,31.70
2013,01,26,15,31,30.00
2013,01,26,15,32,30.00
2013,01,26,15,33,29.20
2013,01,26,15,34,28.00
2013,01,26,15,35,26.80
2013,01,26,15,36,26.00
2013,01,26,15,37,26.00
2013,01,26,15,38,25.20
2013,01,26,15,39,25.00
2013,01,26,15,40,22.80
2013,01,26,15,41,20.70
2013,01,26,15,42,18.80
2013,01,26,15,43,18.30
2013,01,26,15,44,19.00
2013,01,26,15,45,21.00
2013,01,26,15,46,24.20
2013,01,26,15,47,25.00
2013,01,26,15,48,25.00
2013,01,26,15,49,25.00
2013,01,26,15,50,23.20
2013,01,26,15,51,23.00
2013,01,26,15,52,23.00
2013,01,26,15,53,23.00
2013,01,26,15,54,22.30
2013,01,26,15,55,21.00
2013,01,26,15,56,21.00
2013,01,26,15,57,21.00
2013,01,26,15,58,21.00
2013,01,26,15,59,21.00
2013,01,26,16,00,21.00
2013,01,26,16,01,21.00
2013,01,26,16,02,21.00
2013,01,26,16,03,21.00
2013,01,26,16,04,21.00
